Regional Weather Roundup
Issued by NWS State College, PA

Home | Current Version | Previous Version | Text Only | Print | Product List | Glossary Off
Versions: 1 2 3 4 5 6 7 8 9 10 11 12 13 14 15 16 17 18 19 20 21 22 23 24 25 26 27 28 29 30 31 32 33 34 35 36 37 38 39 40 41 42 43 44 45 46 47 48 49 50

000
ASUS41 KCTP 011810
RWRCTP

REGIONAL WEATHER ROUNDUP
NATIONAL WEATHER SERVICE STATE COLLEGE PA
100 PM EST SUN MAR 01 2015

Note: "fair" indicates few or no clouds below 12,000 feet with no
significant weather and/or obstructions to visibility.

* = STATION THAT DOES NOT REPORT PRECIPITATION /E.G. RAIN...SNOW...ETC/
    THUNDER OR FOG.

PAZ002>004-007>009-013>016-020>023-029>032-011900-
WESTERN PENNSYLVANIA

CITY           SKY/WX    TMP DP  RH WIND       PRES   REMARKS
ERIE           LGT SNOW  31  25  78 VRB3      30.29F
MEADVILLE      LGT SNOW  29  23  78 SW7       30.25F
FRANKLIN*      CLOUDY    28  25  86 SW9       30.27F
NEW CASTLE     LGT SNOW  33  30  89 CALM      30.29F FOG
BEAVER COUNTY  LGT SNOW  34  32  93 SW9       30.28F VSB 1
BUTLER*        CLOUDY    34  30  86 SW8       30.30F VSB 3/4
PITTSBURGH INT LGT SNOW  33  32  96 S6        30.28F VSB 1
PITTSBURGH     SNOW      33  29  85 S10       30.28F VSB 1/2
INDIANA*       FOG       34  34 100 SW7       30.33F VSB 3/4
LATROBE        LGT SNOW  32  32 100 SW8       30.32F
WASHINGTON CO* CLOUDY    34  32  93 S6        30.31F
$$

PAZ004>006-010>012-017>019-024>028-033>037-041-042-045-046-049>053-011900-
CENTRAL PENNSYLVANIA

CITY           SKY/WX    TMP DP  RH WIND       PRES   REMARKS
BRADFORD       SNOW      27  23  85 VRB5      30.21F VSB 1/2
DUBOIS         SNOW      31  29  92 VRB3      30.24F VSB 1/2
CLEARFIELD     LGT SNOW  26  22  84 NE3       30.29F VSB 3/4
JOHNSTOWN      LGT SNOW  32  30  92 SW10      30.25F VSB 3/4
ALTOONA        LGT SNOW  26  23  88 SW7       30.33F FOG
STATE COLLEGE  LGT SNOW  25  21  86 SW6       30.35F VSB 1
WILLIAMSPORT   LGT SNOW  24  18  77 E7        30.43F
SELINSGROVE    LGT SNOW  25  21  85 S8        30.46F VSB 3/4
FT INDIANTOWN  LGT SNOW  23  21  93 SE6       30.47F FOG
CAPITAL CITY   LGT SNOW  25  22  88 SE5       30.48F VSB 3/4
HARRISBURG     LGT SNOW  25  21  85 SE8       30.48F VSB 3/4
YORK           LGT SNOW  26  22  84 CALM      30.46F FOG
$$

PAZ038>040-043-044-047-048-054-055-060>062-067>071-011900-
EASTERN PENNSYLVANIA

CITY           SKY/WX    TMP DP  RH WIND       PRES   REMARKS
SCRANTON       LGT SNOW  24  17  74 S8        30.41F VSB 1
MOUNT POCONO   LGT SNOW  18  13  80 S13       30.36F WCI   5
ALLENTOWN      LGT SNOW  23  18  81 S5        30.52F VSB 3/4
QUAKERTOWN*    CLOUDY    23  21  93 CALM      30.51F VSB 3/4
READING        LGT SNOW  24  20  84 SE3       30.50F VSB 3/4
LANCASTER      SNOW      23  21  92 SE3       30.50F VSB 1/2
COATESVILLE    LGT SNOW  25  23  93 S6        30.49F
POTTSTOWN      SNOW      23  22  96 SW3       30.53F VSB 1/2
BLUE BELL      CLOUDY    28  23  80 S3        30.52F
DOYLESTOWN     LGT SNOW  22  20  92 S3        30.51F VSB 1
WILLOW GROVE   NOT AVBL
NORTH PHILA    LGT SNOW  26  19  74 S3        30.55F
PHILADELPHIA   SLEET     26  21  81 S7        30.55F
$$


USA.gov is the U.S. government's official web portal to all federal, state and local government web resources and services.